[Iaude] MPEC M29: 2024 MH [a=2.86,e=0.97,i=16.6,H=19.4]

mpec at cfa.harvard.edu mpec at cfa.harvard.edu
Wed Jun 19 10:23:37 EDT 2024


M.P.E.C. 2024-M29                                 Issued 2024 June 19, 14:22 UT

     The Minor Planet Electronic Circulars contain information on unusual
         minor planets, routine data on comets and natural satellites,
         and occasional editorial announcements.  They are published
    on behalf of Division F of the International Astronomical Union by the
          Minor Planet Center, Smithsonian Astrophysical Observatory,
                          Cambridge, MA 02138, U.S.A.
			  
             Prepared using the Tamkin Foundation Computer Network

                              MPC at CFA.HARVARD.EDU
            URL https://www.minorplanetcenter.net/    ISSN 1523-6714

                                    2024 MH                                     


Observations:
     K24M00H* C2024 06 16.28199113 35 04.147+75 58 12.40         19.87wXEM029F51
     K24M00H  C2024 06 16.29377213 35 35.088+75 55 27.92         20.04wXEM029F51
     K24M00H  C2024 06 16.30556113 36 05.847+75 52 43.19         19.78wXEM029F51
     K24M00H  C2024 06 16.31732813 36 36.214+75 49 59.26         19.83wXEM029F51
     K24M00H 1C2024 06 16.38252013 39 21.633+75 34 41.30         19.46GVEM029T12
     K24M00H 1C2024 06 16.38395013 39 25.304+75 34 20.88         19.94GVEM029T12
     K24M00H  C2024 06 16.39451713 39 51.658+75 31 51.47         19.63GVEM029F52
     K24M00H  C2024 06 16.39517013 39 53.418+75 31 41.70         19.41GVEM029F52
     K24M00H KC2024 06 16.45792 13 42 27.61 +75 16 27.3                VEM029291
     K24M00H KC2024 06 16.45990 13 42 32.48 +75 15 59.3                VEM029291
     K24M00H KC2024 06 16.46189 13 42 37.26 +75 15 30.5                VEM029291
     K24M00H KB2024 06 16.71227 13 52 05.89 +74 16 11.8          19.3 GVEM029P13
     K24M00H KB2024 06 16.72263 13 52 27.65 +74 13 41.5          19.6 GVEM029P13
     K24M00H KC2024 06 16.86089613 57 13.05 +73 40 32.3          19.2 GVEM029104
     K24M00H KC2024 06 16.86476013 57 20.43 +73 39 36.2                VEM029104
     K24M00H KC2024 06 16.87152313 57 33.46 +73 37 58.0          19.2 GVEM029104
     K24M00H KC2024 06 16.88559013 58 00.30 +73 34 31.2          19.7 GVEM029L01
     K24M00H KC2024 06 16.88707013 58 03.15 +73 34 09.7          19.5 GVEM029L01
     K24M00H KC2024 06 16.88855113 58 05.93 +73 33 48.2          19.6 GVEM029L01
     K24M00H KC2024 06 16.89003313 58 08.73 +73 33 26.9          19.7 GVEM029L01
     K24M00H KC2024 06 16.89151313 58 11.59 +73 33 04.6          19.7 GVEM029L01
     K24M00H KB2024 06 16.90564 13 58 38.55 +73 29 37.8          18.9 RZEM029106
     K24M00H KB2024 06 16.90884 13 58 44.49 +73 28 50.7          18.8 RZEM029106
     K24M00H KB2024 06 16.91234 13 58 51.21 +73 27 59.5          19.0 RZEM029106
     K24M00H KB2024 06 16.91523613 58 56.97 +73 27 18.3                VEM029204
     K24M00H KB2024 06 16.91600 13 58 58.12 +73 27 05.9          18.7 RZEM029106
     K24M00H KB2024 06 16.92488413 59 15.16 +73 24 57.5          19.5 GVEM029204
     K24M00H KB2024 06 16.93452913 59 33.26 +73 22 36.2                VEM029204
     K24M00H KC2024 06 16.96415414 00 29.172+73 15 21.64         19.1 GVEM029J95
     K24M00H KC2024 06 16.96880514 00 37.745+73 14 13.49         19.8 GVEM029J95
     K24M00H KC2024 06 16.97427614 00 47.779+73 12 52.85         19.6 GVEM029J95
     K24M00H KC2024 06 17.29157 14 09 51.82 +71 55 18.8          19.2 RVEM029291
     K24M00H KC2024 06 17.29494 14 09 57.04 +71 54 29.0          19.4 RVEM029291
     K24M00H KC2024 06 17.29830 14 10 02.38 +71 53 38.6          19.3 RVEM029291
     K24M00H KB2024 06 17.83540314 22 40.100+69 41 05.77               XEM029M45
     K24M00H KB2024 06 17.83816914 22 43.616+69 40 24.53               XEM029M45
     K24M00H KB2024 06 17.93896 14 24 45.12 +69 15 29.1          19.7 GXEM029G15
     K24M00H KB2024 06 17.95091 14 24 59.21 +69 12 30.7          19.4 GXEM029G15
     K24M00H KC2024 06 18.00157914 25 58.505+68 59 55.36         19.5 GVEM029J95
     K24M00H KC2024 06 18.00581414 26 03.360+68 58 52.21         19.5 GVEM029J95
     K24M00H KC2024 06 18.00996114 26 08.124+68 57 50.18         19.4 GVEM029J95
     K24M00H KC2024 06 18.01529614 26 14.287+68 56 30.91         19.4 GVEM029J95
     K24M00H KB2024 06 18.02234314 26 21.80 +68 54 48.0                XEM029958
     K24M00H KB2024 06 18.03030914 26 31.03 +68 52 50.1          19.3 GXEM029958
     K24M00H KB2024 06 18.03816014 26 39.65 +68 50 52.9          19.8 GXEM029958
     K24M00H KC2024 06 18.84567214 39 54.06 +65 32 56.2          19.2 GXEM029595
     K24M00H KC2024 06 18.85495514 40 01.52 +65 30 40.5          19.6 GXEM029595
     K24M00H KC2024 06 18.86401814 40 09.04 +65 28 29.2          19.5 GXEM029595
     K24M00H KB2024 06 18.88632 14 40 27.11 +65 23 02.5          19.0 RZEM029106
     K24M00H KB2024 06 18.89064 14 40 31.282+65 22 03.36         20.1 GXEM029J57
     K24M00H KB2024 06 18.89146 14 40 31.13 +65 21 47.4          19.1 RZEM029106
     K24M00H KB2024 06 18.89617 14 40 35.00 +65 20 38.8          19.0 RZEM029106
     K24M00H KB2024 06 18.89662 14 40 36.144+65 20 36.60         20.1 GXEM029J57
     K24M00H KB2024 06 18.90028 14 40 38.30 +65 19 38.6          19.0 RZEM029106
     K24M00H KC2024 06 18.91075 14 40 46.53 +65 17 04.1          19.6 GXEM029G02
     K24M00H KC2024 06 18.91427 14 40 49.61 +65 16 14.5          19.2 GVEM029K51
     K24M00H KC2024 06 18.91805 14 40 52.42 +65 15 17.0          19.3 GXEM029G02
     K24M00H KC2024 06 18.91891 14 40 53.30 +65 15 07.1          19.4 GVEM029K51
     K24M00H 6C2024 06 18.91971 14 40 54.60 +65 15 00.6          19.7 GVEM029Z84
     K24M00H 6C2024 06 18.92138 14 40 55.93 +65 14 36.5          19.4 GVEM029Z84
     K24M00H 6C2024 06 18.92304 14 40 57.26 +65 14 12.0          19.8 GVEM029Z84
     K24M00H KC2024 06 18.92355 14 40 57.05 +65 13 59.4          19.4 GVEM029K51
     K24M00H KB2024 06 19.50226714 48 06.456+62 55 08.04         19.8 VZEM029Q06
     K24M00H KB2024 06 19.50936614 48 11.013+62 53 26.44         19.6 VZEM029Q06
     K24M00H KB2024 06 19.51646514 48 15.674+62 51 45.86         19.6 VZEM029Q06

Observer details:
104 San Marcello Pistoiese.  Observers P. Bacci, M. Maestripieri.  Measurers
    P. Bacci, L. Tesi, G. Fagioli.  0.60-m F4 Reflector + CCD.
106 Crni Vrh.  Observer H. Mikuz.  0.60-m f/3.3 reflector + CMO.
204 Schiaparelli Observatory.  Observer L. Buzzi.  0.84-m f/3.5 reflector +
    CMO.
291 LPL/Spacewatch II.  Observer T. H. Bressi.  1.8-m f/2.7 reflector + CCD.
595 Farra d'Isonzo.  Observers G. D'Agostino, G. Panterotto, E. Pettarin.
    Measurer G. D'Agostino.  0.61-m f/4.5 reflector + CCD.
958 Observatoire de Dax.  Observer P. Dupouy.  0.50-m f/4.5 Reflector + CMO.
F51 Pan-STARRS 1, Haleakala.  Observers J. Herman, T. Lowe, P. Minguez, A.
    Schultz, I. Smith.  Measurers K. Chambers, T. de Boer, J. Fairlamb, H.
    Gao, M. Huber, C.-C. Lin, E. Magnier, Y. Ramanjooloo, R. Wainscoat, R.
    Weryk.  1.8-m Ritchey-Chretien + CCD.
F52 Pan-STARRS 2, Haleakala.  Observers J. Herman, T. Lowe, P. Minguez, A.
    Schultz, I. Smith.  Measurers K. Chambers, T. de Boer, J. Fairlamb, H.
    Gao, M. Huber, C.-C. Lin, E. Magnier, Y. Ramanjooloo, R. Wainscoat, R.
    Weryk.  1.8-m Ritchey-Chretien + CCD.
G02 KYSUCE Observatory, Kysucke Nove Mesto.  Observer M. Urbanik.  0.40-m
    f/6.8 Corrected Dall-Kirkham + CCD.
G15 Magroforte Observatory, Alessandria.  Observer A. De Pieri.  0.23-m f/6.7
    SC + CMO.
J57 Centro Astronomico Alto Turia, Valencia.  Observer A. Fornas.  Measurers
    A. Fornas, G. Fornas, E. Arce, V. Mas.  0.43-m f/6.8 Reflector CDK + CMO.
J95 Great Shefford.  Observer P. Birtwhistle.  0.41-m f/6.3 Schmidt-Cassegrain
    + CCD.
K51 Osservatorio del Celado, Castello Tesino.  Observer M. Campestrin.  0.80-m
    f/4 reflector + CCD.
L01 Visnjan Observatory, Tican.  Observer K. Korlevic.  1.0-m f/2.9 reflector
    + CCD.
M45 Starhopper Observatory, Sfantu Gheorghe.  Observer F. Ursache.  0.41-m
    f/7.5 reflector + CMO.
P13 Baihuashan Observatory, Beijing.  Observers Z. Wang, B. Liu.  Measurer Z.
    Wang.  0.28-m f/2.2 reflector + CMO.
Q06 Tarui Observatory, Tarui.  Observer H. Watanabe.  0.35-m f/1.9 Schmidt-
    Cassegrain + CMO.
T12 University of Hawaii 88-inch telescope, Maunakea.  Observers J. Fairlamb,
    L. Benavitz, K. Toguchi-Tani.  Measurers R. Weryk, J. Fairlamb, Y.
    Ramanjooloo, R. Wainscoat.  2.24-m f/10.1 reflector + CCD.
Z84 Calar Alto-Schmidt.  Observers M. Micheli, R. Kresken.  Measurers R.
    Kresken, M. Micheli, F. Ocana, L. Conversi.  0.8-m f/3 Schmidt + CCD.

Orbital elements:
2024 MH                                                  Earth MOID = 0.1777 AU
Epoch 2024 Mar. 31.0 TT = JDT 2460400.5                 Veres                   
M 350.75591              (2000.0)            P               Q                  
n   0.20406379     Peri.  288.83400     -0.41828818     -0.90779630             
a   2.8573191      Node   186.16016     +0.90315319     -0.41207934             
e   0.9663250      Incl.   16.60939     +0.09669188     -0.07808003             
P   4.83           H   19.43          G   0.15           U   9                  
Residuals in seconds of arc
240616 F51  0.3-  0.6+    240616 106  0.2-  0.3-    240618 958  0.7-  0.6+
240616 F51  0.2-  0.1+    240616 106  0.2+  0.3-    240618 595  0.2+  0.0
240616 F51  0.0   0.1-    240616 204  0.1-  0.2-    240618 595  0.5-  0.2-
240616 F51 (0.3-  0.5+)   240616 106  0.2+  0.3-    240618 595  0.3+  0.8+
240616 T12 (0.3-  0.2+)   240616 204  0.1+  0.3+    240618 106  0.5+  0.2-
240616 T12  0.1+  0.0     240616 204  0.2+  0.3+    240618 J57  0.1-  0.2-
240616 F52  0.2-  0.2+    240616 J95  0.1-  0.3+    240618 106  0.3-  0.2-
240616 F52  0.3+  0.3-    240616 J95  0.1-  0.4+    240618 106  0.2+  0.0
240616 291  0.1+  0.3-    240616 J95  0.2-  0.0     240618 J57  0.3+  0.3+
240616 291  0.2+  0.0     240617 291  0.1+  0.1-    240618 106  0.1+  0.1-
240616 291  0.2-  0.4-    240617 291  0.2-  0.2+    240618 G02  0.3-  0.5+
240616 P13  0.0   0.1-    240617 291  0.2+  0.2-    240618 K51  0.1-  0.2-
240616 P13  0.1-  0.2+    240617 M45  0.1-  0.9-    240618 G02  0.1-  0.1+
240616 104  0.2+  0.2-    240617 M45  0.6+  1.1-    240618 K51  0.3-  0.2+
240616 104  0.2-  0.0     240617 G15  0.3+  0.5+    240618 Z84  0.1+  0.3-
240616 104  0.2-  0.4+    240617 G15  0.9+  0.2+    240618 Z84  0.1+  0.1-
240616 L01  0.0   0.1-    240618 J95  0.1-  0.0     240618 Z84  0.2+  0.3-
240616 L01  0.1+  0.0     240618 J95  0.1-  0.0     240618 K51  0.0   0.3+
240616 L01  0.1-  0.1+    240618 J95  0.1-  0.3-    240619 Q06  0.2+  0.1+
240616 L01  0.2-  0.5+    240618 J95  0.3+  0.0     240619 Q06  0.2-  0.2-
240616 L01  0.1-  0.2-    240618 958  0.1-  0.3-    240619 Q06  0.3+  0.5+
240616 106  0.3+  0.1-    240618 958  0.9+  0.6+

Ephemeris:
2024 MH                  a,e,i = 2.86, 0.97, 17                  q = 0.0962
Date    TT    R. A. (2000) Decl.     Delta      r    Elong.  Phase     V
2024 05 20    04 12 51.4 +23 52 39   0.7943  0.2437     7.0   149.5    24.2
...
2024 06 04    04 34 02.2 +50 21 27   0.3905  0.6947    28.1   136.6    23.0
...
2024 06 12    06 40 50.7 +78 07 11   0.2958  0.8835    55.8   108.2    20.6
...
2024 06 18    14 25 58.3 +69 00 27   0.2983  1.0120    80.8    82.3    19.7
2024 06 19    14 41 59.5 +64 55 33   0.3051  1.0325    84.5    78.4    19.7
2024 06 20    14 53 14.9 +60 58 06   0.3136  1.0528    88.0    74.7    19.6
...
2024 06 26    15 23 40.8 +41 33 02   0.3911  1.1703   103.3    57.7    19.8
...
2024 07 04    15 38 09.5 +25 54 22   0.5374  1.3170   112.2    45.6    20.4
...
2024 07 19    15 53 00.3 +11 31 01   0.8665  1.5679   112.5    36.8    21.6

M. P. C. Staff               (C) Copyright 2024 MPC           M.P.E.C. 2024-M29





More information about the Iaude mailing list